Вернуться в каталог

CZ-3C DEB

LostGTO
NORAD 40205·DEBRIS·🇨🇳 China

Запущен Feb 24, 2012 с Xichang Satellite Launch Center

Loading…

TLE

УстаревшееSource: Space-Track

Эпоха: Sep 21, 2024, 22:12 UTC

1 40205U 12008Q   24265.92567385 -.00000044  00000-0  00000-0 0  9995
2 40205  20.6610  67.0272 7015375 195.0549 122.0798  2.19542354  3268

Отслеживайте CZ-3C DEB в реальном времени с AllMySat

Download on the App Store